EA7JCM-13 Weather Reports


time (UTC)temp
C
wind
direction
speed
KPH
gust
KPH
rain 1hr
cm
rain 24hr
cm
rain mn
cm
humidity
%
barometer
mb
20260510235003 11 144 3.2 6.4 0.00 0.76 0.00 83 1013.0
20260510234504 11 142 3.2 6.4 0.00 0.76 0.00 83 1013.0
20260510234004 11 161 3.2 11.3 0.00 0.76 0.00 82 1013.1
20260510233503 11 172 3.2 11.3 0.00 0.76 0.00 81 1013.2
20260510233004 11 173 3.2 6.4 0.00 0.76 0.00 81 1013.2
20260510232504 11 145 3.2 6.4 0.00 0.76 0.00 81 1013.0
20260510232003 11 114 1.6 6.4 0.00 0.76 0.00 81 1013.2
20260510231504 11 122 1.6 3.2 0.00 0.76 0.00 81 1013.1
20260510231003 11 135 0.0 3.2 0.00 0.76 0.00 81 1013.2
20260510230505 11 147 1.6 3.2 0.00 0.76 0.00 80 1013.3
20260510230003 12 164 3.2 6.4 0.00 0.76 0.00 80 1013.3
20260510225504 12 179 0.0 6.4 0.00 0.76 0.00 79 1013.2
20260510225004 12 162 1.6 6.4 0.00 0.76 0.00 79 1013.1
20260510224504 12 156 1.6 9.7 0.00 0.76 0.00 79 1013.4
20260510224003 12 169 3.2 9.7 0.00 0.76 0.00 78 1013.3
20260510223504 12 169 0.0 6.4 0.00 0.76 0.00 78 1013.0
20260510223004 12 175 3.2 9.7 0.00 0.76 0.00 78 1013.1
20260510222504 12 181 3.2 9.7 0.00 0.76 0.00 77 1013.1
20260510222004 12 183 3.2 12.9 0.00 0.76 0.00 77 1013.3
20260510221504 12 179 4.8 12.9 0.00 0.76 0.00 77 1013.0
20260510221004 12 167 6.4 12.9 0.00 0.76 0.00 76 1013.0
20260510220503 12 176 3.2 17.7 0.00 0.76 0.00 76 1012.9
20260510220007 12 199 4.8 17.7 0.00 0.76 0.00 76 1013.1
20260510215503 12 192 8.0 17.7 0.00 0.76 0.79 77 1012.9
20260510215002 12 171 4.8 17.7 0.00 0.76 0.79 79 1012.8
20260510214502 12 174 6.4 14.5 0.00 0.76 0.79 81 1012.9
20260510214002 12 188 6.4 17.7 0.00 0.76 0.79 81 1012.5
20260510213503 13 193 8.0 17.7 0.00 0.76 0.79 80 1012.7
20260510213002 13 192 4.8 17.7 0.00 0.76 0.79 79 1012.6
20260510212502 13 187 6.4 17.7 0.00 0.76 0.79 79 1012.9
20260510212003 13 192 6.4 17.7 0.00 0.76 0.79 79 1012.9
20260510211502 13 195 9.7 17.7 0.00 0.76 0.79 80 1012.9
20260510211002 13 172 8.0 17.7 0.00 0.76 0.79 80 1012.9
20260510210502 13 167 4.8 14.5 0.00 0.76 0.79 81 1012.8
20260510210003 13 179 6.4 17.7 0.00 0.76 0.79 81 1013.0
20260510205502 13 188 4.8 17.7 0.00 0.76 0.79 80 1012.6
20260510205003 13 177 4.8 14.5 0.00 0.76 0.79 80 1013.0
20260510204503 13 167 4.8 20.9 0.00 0.76 0.79 80 1012.6
20260510204002 13 173 6.4 20.9 0.00 0.76 0.79 79 1012.6
20260510203502 13 169 6.4 17.7 0.00 0.76 0.79 79 1012.5
20260510203002 13 170 8.0 17.7 0.00 0.76 0.79 79 1012.3
20260510202502 13 168 6.4 17.7 0.00 0.76 0.79 79 1012.6
20260510202002 13 172 4.8 17.7 0.00 0.76 0.79 80 1012.6
20260510201503 13 182 3.2 17.7 0.00 0.76 0.79 80 1012.4
20260510201002 13 171 9.7 17.7 0.00 0.76 0.79 80 1012.3
20260510200503 13 182 9.7 14.5 0.00 0.76 0.79 80 1012.4
20260510200002 13 182 4.8 14.5 0.00 0.76 0.79 81 1012.3
20260510195502 13 170 6.4 14.5 0.00 0.76 0.79 81 1012.3
20260510195002 13 175 6.4 14.5 0.00 0.76 0.79 81 1012.4
20260510194502 13 194 6.4 12.9 0.00 0.76 0.79 81 1012.3
20260510194002 13 183 4.8 12.9 0.00 0.76 0.79 82 1012.1
20260510193503 13 171 6.4 17.7 0.00 0.76 0.79 82 1012.3
20260510193003 13 174 6.4 17.7 0.00 0.76 0.79 83 1012.3
20260510192503 13 181 6.4 12.9 0.00 0.76 0.79 84 1012.2
20260510192003 13 184 4.8 12.9 0.00 0.76 0.79 85 1012.2
20260510191502 13 176 3.2 11.3 0.00 0.76 0.79 85 1012.3
20260510191003 13 175 6.4 11.3 0.00 0.76 0.79 85 1012.2
20260510190502 13 178 3.2 12.9 0.00 0.76 0.79 85 1012.3
20260510190002 13 186 3.2 12.9 0.00 0.76 0.79 85 1012.1
20260510185503 13 182 3.2 12.9 0.00 0.76 0.79 85 1012.0
20260510185002 13 164 3.2 12.9 0.00 0.76 0.79 84 1012.2
20260510184503 13 129 6.4 12.9 0.00 0.76 0.79 84 1011.8
20260510184003 13 111 3.2 11.3 0.00 0.76 0.79 84 1012.1
20260510183502 14 157 3.2 9.7 0.00 0.76 0.79 84 1011.8
20260510183002 13 147 3.2 11.3 0.00 0.76 0.79 84 1012.0
20260510182503 13 141 4.8 11.3 0.00 0.76 0.79 84 1011.6
20260510182002 13 183 6.4 14.5 0.00 0.76 0.79 84 1011.8
20260510181502 14 187 6.4 14.5 0.00 0.76 0.79 84 1011.6
20260510181002 14 173 11.3 14.5 0.00 0.76 0.79 83 1011.8
20260510180502 14 183 6.4 22.5 0.00 0.76 0.79 84 1011.6
20260510180003 13 196 6.4 22.5 0.00 0.76 0.79 85 1011.7
20260510175502 13 203 12.9 22.5 0.00 0.76 0.79 86 1011.7
20260510175003 13 210 9.7 14.5 0.00 0.76 0.79 88 1011.6
20260510174503 13 201 8.0 17.7 0.00 0.76 0.79 90 1011.9
20260510174003 13 179 9.7 17.7 0.00 0.76 0.76 91 1011.4
20260510173502 13 189 6.4 17.7 0.00 0.76 0.76 93 1011.5
20260510173003 13 190 8.0 17.7 0.00 0.76 0.76 93 1011.3
20260510172503 13 183 9.7 20.9 0.00 0.76 0.76 94 1011.4
20260510172003 13 187 8.0 20.9 0.00 0.76 0.76 94 1011.6
20260510171503 13 193 9.7 17.7 0.03 0.76 0.76 94 1011.7
20260510171002 13 194 8.0 17.7 0.03 0.79 0.76 94 1011.6
20260510170502 13 199 9.7 17.7 0.03 0.79 0.76 94 1011.7
20260510170002 13 203 6.4 20.9 0.03 0.79 0.76 94 1011.4
20260510165502 12 205 8.0 20.9 0.05 0.79 0.76 94 1011.7
20260510165003 12 205 12.9 20.9 0.05 0.89 0.76 94 1011.7
20260510164502 12 200 9.7 24.1 0.15 0.89 0.76 95 1011.5
20260510164002 12 220 12.9 25.7 0.33 0.89 0.76 95 1011.7
20260510163502 12 215 16.1 25.7 0.43 0.89 0.76 94 1011.6
20260510163002 12 191 12.9 24.1 0.43 0.89 0.76 94 1011.6
20260510162504 12 197 12.9 24.1 0.43 0.97 0.76 94 1011.6
20260510162003 12 197 14.5 27.4 0.43 1.04 0.76 94 1011.7
20260510161503 12 199 12.9 32.2 0.38 1.04 0.71 94 1011.5
20260510161002 12 204 16.1 32.2 0.38 1.04 0.71 94 1011.4
20260510160503 12 217 19.3 32.2 0.38 1.04 0.71 94 1011.3
20260510160003 12 211 11.3 33.8 0.38 1.04 0.71 94 1011.4
20260510155503 12 200 14.5 38.6 0.36 1.02 0.69 93 1011.2
20260510155003 12 211 14.5 38.6 0.33 1.04 0.66 93 1011.3
20260510154502 12 219 17.7 46.7 0.20 0.94 0.53 91 1011.2
20260510154002 14 205 17.7 46.7 0.05 0.79 0.38 87 1011.1
20260510153503 16 177 11.3 22.5 0.00 0.71 0.33 84 1010.6
20260510153003 16 176 6.4 22.5 0.00 0.71 0.33 83 1010.4
20260510152503 16 183 11.3 22.5 0.00 0.71 0.33 83 1010.3
20260510152002 16 187 12.9 22.5 0.00 0.71 0.33 83 1010.0
20260510151503 16 191 11.3 20.9 0.00 0.71 0.33 83 1010.2
20260510151003 16 192 11.3 22.5 0.00 0.71 0.33 84 1010.3
20260510150502 15 184 9.7 22.5 0.00 0.71 0.33 86 1010.3
20260510150003 16 182 3.2 14.5 0.00 0.71 0.33 89 1010.2
20260510145503 15 178 6.4 14.5 0.00 0.71 0.33 90 1010.4
20260510145003 15 143 6.4 14.5 0.03 0.71 0.33 90 1010.5
20260510144502 15 161 6.4 20.9 0.05 0.71 0.33 91 1010.4
20260510144003 14 185 6.4 20.9 0.10 0.71 0.33 92 1010.7
20260510143503 13 191 12.9 17.7 0.10 0.71 0.33 92 1010.5
20260510143002 14 188 6.4 17.7 0.10 0.71 0.33 93 1010.9
20260510142503 14 178 4.8 17.7 0.10 0.71 0.33 94 1010.9
20260510142002 13 194 6.4 17.7 0.10 0.71 0.33 94 1011.1
20260510141503 13 184 3.2 17.7 0.10 0.71 0.33 94 1011.0
20260510141003 13 177 4.8 20.9 0.10 0.71 0.33 94 1011.3
20260510140502 13 187 8.0 20.9 0.10 0.71 0.33 93 1011.5
20260510140003 13 196 6.4 14.5 0.10 0.71 0.33 93 1011.6
20260510135503 13 209 9.7 17.7 0.10 0.71 0.33 93 1011.3
20260510135002 13 207 6.4 17.7 0.05 0.69 0.30 93 1011.3
20260510134503 13 208 9.7 17.7 0.03 0.66 0.28 93 1011.1
20260510134002 13 224 6.4 17.7 0.00 0.64 0.23 93 1011.3
20260510133502 13 235 9.7 17.7 0.00 0.64 0.23 93 1011.4
20260510133003 13 221 4.8 14.5 0.00 0.64 0.23 93 1011.0
20260510132502 13 220 6.4 14.5 0.00 0.64 0.23 93 1011.1
20260510132003 13 224 9.7 17.7 0.00 0.64 0.23 93 1011.2
20260510131503 13 221 8.0 17.7 0.03 0.64 0.23 93 1011.5
20260510131002 13 220 11.3 17.7 0.03 0.64 0.23 93 1011.1
20260510130503 13 217 9.7 17.7 0.03 0.64 0.23 93 1011.4
20260510130002 13 203 8.0 14.5 0.03 0.64 0.23 93 1011.3
20260510125503 14 201 6.4 17.7 0.03 0.64 0.23 93 1011.3
20260510124503 13 209 11.3 17.7 0.05 0.64 0.23 93 1011.3
20260510124003 13 207 8.0 17.7 0.05 0.64 0.23 93 1011.5
20260510123002 13 197 8.0 17.7 0.10 0.64 0.23 93 1011.5
20260510121502 13 193 14.5 22.5 0.05 0.61 0.20 92 1011.7
20260510121003 13 185 12.9 17.7 0.05 0.61 0.20 92 1011.6
20260510120502 13 179 11.3 22.5 0.05 0.61 0.20 92 1011.8
20260510120003 13 178 11.3 22.5 0.05 0.61 0.20 92 1011.9
20260510115503 13 190 12.9 20.9 0.05 0.61 0.20 91 1011.6
20260510115002 13 203 11.3 20.9 0.05 0.61 0.20 91 1011.8
20260510114503 13 204 11.3 22.5 0.03 0.56 0.18 90 1011.9
20260510114002 13 205 11.3 29.0 0.03 0.56 0.18 89 1012.0
20260510113503 13 210 12.9 29.0 0.03 0.56 0.18 85 1011.8
20260510113003 15 208 19.3 29.0 0.00 0.53 0.15 76 1011.6
20260510112504 16 185 11.3 27.4 0.00 0.53 0.15 67 1011.4
20260510111503 16 178 11.3 20.9 0.00 0.53 0.15 62 1011.1
20260510111002 16 177 6.4 20.9 0.00 0.53 0.15 63 1011.1
20260510110503 16 170 6.4 12.9 0.00 0.53 0.15 62 1011.1
20260510110003 16 164 4.8 14.5 0.00 0.53 0.15 62 1011.2
20260510105502 16 163 4.8 20.9 0.00 0.53 0.15 62 1011.2
20260510105003 16 158 3.2 25.7 0.00 0.53 0.15 62 1011.2
20260510104503 16 141 11.3 25.7 0.00 0.53 0.15 60 1011.1
20260510104003 16 164 3.2 29.0 0.00 0.53 0.15 60 1011.1
20260510103503 16 172 8.0 29.0 0.00 0.53 0.15 60 1011.0
20260510103003 16 179 9.7 27.4 0.00 0.53 0.15 61 1010.9
20260510102503 16 185 12.9 27.4 0.00 0.53 0.15 63 1011.0
20260510102003 17 172 8.0 22.5 0.00 0.53 0.15 60 1011.1
20260510101503 17 166 9.7 22.5 0.00 0.53 0.15 60 1011.0
20260510101003 17 165 11.3 25.7 0.00 0.53 0.15 60 1011.0
20260510100503 17 175 8.0 25.7 0.00 0.53 0.15 60 1011.2
20260510100003 17 178 14.5 25.7 0.00 0.53 0.15 60 1011.2
20260510095503 17 173 4.8 12.9 0.00 0.53 0.15 63 1011.3
20260510095003 16 173 4.8 12.9 0.00 0.53 0.15 63 1011.1
20260510094503 16 174 4.8 12.9 0.00 0.53 0.15 64 1011.1
20260510094003 16 162 6.4 17.7 0.00 0.53 0.15 64 1011.4
20260510093503 16 149 6.4 22.5 0.00 0.53 0.15 65 1011.2
20260510093003 16 145 6.4 22.5 0.00 0.53 0.15 66 1011.2
20260510092503 16 155 6.4 20.9 0.00 0.53 0.15 67 1011.1
20260510092003 16 161 6.4 24.1 0.00 0.53 0.15 67 1011.3
20260510091503 16 163 14.5 24.1 0.00 0.53 0.15 66 1011.5
20260510091003 16 155 4.8 12.9 0.00 0.56 0.15 68 1011.3
20260510090503 16 176 4.8 17.7 0.00 0.56 0.15 69 1011.3
20260510090004 16 189 4.8 17.7 0.00 0.56 0.15 70 1011.2
20260510085503 15 187 4.8 17.7 0.00 0.56 0.15 72 1011.0
20260510085003 15 195 6.4 12.9 0.00 0.56 0.15 75 1011.4
20260510084503 14 179 3.2 20.9 0.00 0.56 0.15 81 1011.2
20260510084003 13 181 6.4 20.9 0.00 0.56 0.15 85 1011.3
20260510083503 13 176 8.0 14.5 0.00 0.56 0.15 87 1011.3
20260510083003 13 183 3.2 11.3 0.03 0.56 0.15 90 1011.5
20260510082503 12 202 8.0 12.9 0.03 0.56 0.15 91 1011.4
20260510082002 12 204 6.4 12.9 0.03 0.56 0.15 91 1011.6
20260510081503 12 200 6.4 11.3 0.05 0.56 0.15 91 1011.7
20260510081003 11 194 6.4 12.9 0.05 0.56 0.15 91 1011.6
20260510080503 11 192 6.4 12.9 0.05 0.56 0.15 91 1011.8
20260510080003 11 194 6.4 12.9 0.05 0.56 0.15 91 1011.7
20260510075503 11 196 6.4 12.9 0.10 0.56 0.15 91 1011.8
20260510075004 11 193 4.8 11.3 0.10 0.56 0.15 91 1011.9
20260510074503 11 179 4.8 17.7 0.15 0.56 0.15 90 1011.8
20260510074003 11 191 6.4 17.7 0.15 0.61 0.15 90 1011.7
20260510073503 11 213 9.7 14.5 0.15 0.61 0.15 90 1011.9
20260510073003 11 214 8.0 14.5 0.13 0.56 0.13 89 1011.7
20260510072503 11 202 6.4 9.7 0.13 0.56 0.13 89 1011.7
20260510072003 11 192 6.4 9.7 0.13 0.56 0.13 89 1011.7
20260510071503 11 183 6.4 9.7 0.10 0.53 0.10 88 1011.7
20260510071003 11 172 3.2 12.9 0.10 0.53 0.10 87 1011.8
20260510070502 12 173 3.2 12.9 0.10 0.53 0.10 87 1011.8
20260510070003 12 169 6.4 11.3 0.10 0.53 0.10 86 1011.6
20260510065503 12 173 3.2 14.5 0.05 0.51 0.05 86 1011.6
20260510065003 12 172 6.4 14.5 0.03 0.48 0.03 85 1011.6
20260510064503 12 125 6.4 22.5 0.00 0.46 0.00 86 1011.5
20260510064003 12 124 9.7 22.5 0.00 0.46 0.00 81 1011.3
20260510063503 13 143 6.4 17.7 0.00 0.46 0.00 75 1011.0
20260510063003 13 157 9.7 17.7 0.00 0.46 0.00 72 1011.1
20260510062505 13 176 6.4 14.5 0.00 0.46 0.00 72 1010.8
20260510062003 13 137 4.8 11.3 0.00 0.46 0.00 73 1011.0
20260510061503 13 120 6.4 20.9 0.00 0.46 0.00 74 1010.9
20260510061003 13 182 6.4 20.9 0.00 0.46 0.00 74 1010.9
20260510060503 13 168 6.4 14.5 0.00 0.46 0.00 72 1011.0
20260510060004 13 145 6.4 14.5 0.00 0.46 0.00 72 1011.0
20260510055503 13 160 4.8 14.5 0.00 0.46 0.00 71 1010.8
20260510054503 13 176 6.4 12.9 0.00 0.46 0.00 69 1010.8
20260510054003 13 128 4.8 22.5 0.00 0.48 0.00 69 1011.0
20260510053503 13 104 6.4 22.5 0.00 0.48 0.00 68 1010.6
20260510053003 13 138 4.8 12.9 0.00 0.48 0.00 67 1010.5
20260510052503 13 124 6.4 11.3 0.00 0.48 0.00 67 1010.6
20260510052004 13 103 6.4 20.9 0.00 0.48 0.00 66 1010.5
20260510051503 13 136 6.4 20.9 0.00 0.48 0.00 66 1010.7
20260510051004 13 172 4.8 12.9 0.00 0.48 0.00 67 1010.5
20260510045503 13 179 6.4 11.3 0.00 0.48 0.00 67 1010.4
20260510045003 13 161 3.2 11.3 0.00 0.48 0.00 69 1010.3
20260510044503 13 152 4.8 11.3 0.00 0.48 0.00 69 1010.4
20260510044003 13 147 3.2 11.3 0.00 0.48 0.00 69 1010.6
20260510043004 13 125 4.8 17.7 0.00 0.48 0.00 68 1010.4
20260510042503 13 106 6.4 17.7 0.00 0.48 0.00 68 1010.7
20260510041503 13 124 4.8 12.9 0.00 0.48 0.00 69 1010.6
20260510041003 12 118 4.8 9.7 0.00 0.48 0.00 70 1010.8
20260510040503 12 118 4.8 9.7 0.00 0.48 0.00 70 1010.8
20260510040004 12 119 4.8 11.3 0.00 0.48 0.00 70 1010.6
20260510035503 12 99 4.8 14.5 0.00 0.48 0.00 71 1010.8
20260510035004 12 91 6.4 14.5 0.00 0.48 0.00 71 1010.6
20260510034503 12 121 6.4 14.5 0.00 0.48 0.00 71 1010.7
20260510034003 12 152 6.4 14.5 0.00 0.48 0.00 71 1010.7
20260510033503 12 136 4.8 11.3 0.00 0.48 0.00 71 1010.7
20260510033003 12 133 3.2 11.3 0.00 0.48 0.00 71 1011.0
20260510032504 12 144 4.8 11.3 0.00 0.48 0.00 71 1010.9
20260510032003 12 131 4.8 11.3 0.00 0.48 0.00 71 1010.8
20260510031503 12 120 3.2 11.3 0.00 0.48 0.00 72 1010.8
20260510031003 12 104 3.2 9.7 0.00 0.48 0.00 73 1010.8
20260510030503 12 114 3.2 9.7 0.00 0.48 0.00 73 1011.0
20260510030003 12 127 3.2 6.4 0.00 0.48 0.00 73 1011.0
20260510025503 12 113 3.2 6.4 0.00 0.48 0.00 73 1010.8
20260510025004 12 117 3.2 6.4 0.00 0.48 0.00 72 1010.8
20260510024503 12 128 3.2 9.7 0.00 0.48 0.00 72 1010.9
20260510023503 13 158 3.2 11.3 0.00 0.48 0.00 71 1011.0
20260510023003 13 156 3.2 11.3 0.00 0.48 0.00 71 1011.0
20260510022504 13 141 3.2 9.7 0.00 0.48 0.00 72 1011.0
20260510022004 13 150 4.8 14.5 0.00 0.48 0.00 72 1011.1
20260510021503 13 157 4.8 14.5 0.00 0.48 0.00 71 1011.1
20260510021004 13 163 8.0 14.5 0.00 0.48 0.00 71 1011.1
20260510020503 13 156 3.2 9.7 0.00 0.48 0.00 72 1011.1
20260510020003 13 141 3.2 11.3 0.00 0.48 0.00 72 1010.9
20260510015504 13 141 4.8 11.3 0.00 0.48 0.00 71 1010.9
20260510015003 12 151 4.8 12.9 0.00 0.48 0.00 72 1011.0
20260510014003 12 132 3.2 6.4 0.00 0.48 0.00 74 1011.0
20260510013504 12 137 4.8 6.4 0.00 0.48 0.00 74 1010.9
20260510013004 12 136 3.2 6.4 0.00 0.48 0.00 74 1011.1
20260510012503 12 139 3.2 6.4 0.00 0.48 0.00 75 1011.3
20260510012003 12 108 3.2 6.4 0.00 0.48 0.00 76 1011.2
20260510011503 12 111 3.2 9.7 0.00 0.48 0.00 76 1011.1
20260510011003 12 113 3.2 9.7 0.00 0.48 0.00 76 1011.3
20260510010504 12 116 3.2 6.4 0.00 0.48 0.00 77 1011.3
20260510005504 12 98 3.2 6.4 0.00 0.48 0.00 77 1011.3
20260510005003 12 114 3.2 6.4 0.00 0.48 0.00 76 1011.5
20260510004504 12 125 3.2 6.4 0.00 0.48 0.00 77 1011.4
20260510004003 12 134 3.2 6.4 0.00 0.48 0.00 76 1011.5
20260510003503 13 160 1.6 6.4 0.00 0.48 0.00 76 1011.7
20260510003004 13 157 3.2 6.4 0.00 0.48 0.00 75 1011.7
20260510002503 13 151 3.2 6.4 0.00 0.48 0.00 76 1011.6
20260510002003 13 146 4.8 6.4 0.00 0.48 0.00 76 1011.5
20260510001504 13 149 3.2 6.4 0.00 0.48 0.00 77 1011.3
20260510001003 13 188 3.2 6.4 0.00 0.48 0.00 77 1011.6
20260510000503 12 177 3.2 6.4 0.00 0.48 0.00 78 1011.5
20260510000004 12 140 3.2 6.4 0.00 0.48 0.00 78 1011.7
20260509235503 12 166 3.2 6.4 0.00 0.48 0.00 79 1011.7